User: anonymous   Login
Location: Keeble Observatory
(37.7625°N, 77.4755°W)
Time: 15:48:59
(UTC-04:00)
Language:

Cosmos 1484 Rocket - Orbit

View from above orbital plane
View from above orbital plane
View from above satellite
View from above satellite

Ground track
Ground track

The orbit data is extracted from the following two-line orbital elements,

1 14208U 83075B   15242.49601211  .00001170  00000-0  76336-4 0  9994
2 14208 097.3807 268.2418 0039262 233.1264 126.6364 15.09175970748411
Epoch (UTC): 30 August 2015 11:54:15
Eccentricity: 0.0039262
inclination: 97.3807°
perigee height: 511 km
apogee height: 566 km
right ascension of ascending node: 268.2418°
argument of perigee: 233.1264°
revolutions per day: 15.09175970
mean anomaly at epoch: 126.6364°
orbit number at epoch: 74841

The dashed part of the orbit path shows where the satellite is in the earth's shadow,  

DLR